Погода в Сеготи

Россия / Ивановская область     57°05′06″N   43°00′51″E
темп.,
°C
ветер,
м/с
пор.,
м/с
влажн.,
%
обл.,
%
осадки,
мм/ч
давл.,
гПа
погр.,
м
19 мая, ср
ср1900:00+18вюв615915 0.1 1013312
03:00+15вюв513968 0.1 1013246
06:00+16вюв512896 0.0 1013276
09:00+20юв7116938 0.0 1013366
12:00+23юв712593 0.0 1012620
15:00+24юв712635 0.0 10121027
18:00+21вюв815700 0.0 1012526
21:00+18вюв614811 0.4 1013296
20 мая, чт
чт2000:00+16вюв513830 0.0 1012256
03:00+15вюв514840 0.0 1011270
06:00+16вюв613840 0.0 1011315
09:00+19юв710750 0.0 1010472
12:00+21юв811682 0.0 10101064
15:00+21ююв91271100 1.1 10091110
18:00+18ююв61182100 1.6 1008363
21:00+15ююв4591100 2.9 100887
21 мая, пт
пт2100:00+14ю379239 1.9 1007116
03:00+12ююз2393100 1.9 100745
06:00+13ююз3692100 0.0 1006228
09:00+16ююз578198 0.5 1007825
12:00+14юз6108660 0.8 1008679
15:00+14юз71079100 1.3 1009699
18:00+15зюз588183 0.1 1011802
21:00+11зюз479194 0.6 1014116
22 мая, сб
сб2200:00+10зюз4891100 0.0 1016122
03:00+9зюз488996 0.0 1017132
06:00+11зюз46853 0.0 1019151
09:00+15зюз34610 0.0 1019567
12:00+18юз3548100 0.0 10191703
15:00+18ю2452100 0.0 10181798
18:00+17ююз3666100 0.0 1018174
21:00+12юз22740 0.0 101814
23 мая, вс
вс2300:00+11ю33800 0.0 101918
03:00+10ю228864 0.0 101911
06:00+11юв358983 0.0 1018127
09:00+14юв4779100 0.0 1018516
12:00+17юв5871100 0.0 1015752
15:00+17юв5986100 0.5 1013567
18:00+16вюв51092100 0.4 1010526
21:00+15вюв61597100 2.0 1006395